Year,Month,Day,Hour,Minute,Value (Times are PST for temperature in C)
2010,07,23,00,00,15.50
2010,07,23,00,01,15.40
2010,07,23,00,02,15.40
2010,07,23,00,03,15.40
2010,07,23,00,04,15.40
2010,07,23,00,05,15.40
2010,07,23,00,06,15.40
2010,07,23,00,07,15.40
2010,07,23,00,08,15.40
2010,07,23,00,09,15.40
2010,07,23,00,10,15.40
2010,07,23,00,11,15.40
2010,07,23,00,12,15.40
2010,07,23,00,13,15.30
2010,07,23,00,14,15.30
2010,07,23,00,15,15.30
2010,07,23,00,16,15.30
2010,07,23,00,17,15.30
2010,07,23,00,18,15.30
2010,07,23,00,19,15.30
2010,07,23,00,20,15.20
2010,07,23,00,21,15.20
2010,07,23,00,22,15.20
2010,07,23,00,23,15.20
2010,07,23,00,24,15.20
2010,07,23,00,25,15.20
2010,07,23,00,26,15.20
2010,07,23,00,27,15.20
2010,07,23,00,28,15.20
2010,07,23,00,29,15.10
2010,07,23,00,30,15.10
2010,07,23,00,31,15.10
2010,07,23,00,32,15.10
2010,07,23,00,33,15.10
2010,07,23,00,34,15.00
2010,07,23,00,35,15.00
2010,07,23,00,36,15.00
2010,07,23,00,37,15.00
2010,07,23,00,38,15.00
2010,07,23,00,39,15.00
2010,07,23,00,40,15.00
2010,07,23,00,41,15.00
2010,07,23,00,42,15.00
2010,07,23,00,43,15.00
2010,07,23,00,44,14.90
2010,07,23,00,45,14.90
2010,07,23,00,46,14.90
2010,07,23,00,47,14.90
2010,07,23,00,48,14.90
2010,07,23,00,49,14.90
2010,07,23,00,50,14.90
2010,07,23,00,51,14.80
2010,07,23,00,52,14.80
2010,07,23,00,53,14.80
2010,07,23,00,54,14.80
2010,07,23,00,55,14.80
2010,07,23,00,56,14.80
2010,07,23,00,57,14.80
2010,07,23,00,58,14.80
2010,07,23,00,59,14.80
2010,07,23,01,00,14.70
2010,07,23,01,01,14.70
2010,07,23,01,02,14.70
2010,07,23,01,03,14.70
2010,07,23,01,04,14.70
2010,07,23,01,05,14.70
2010,07,23,01,06,14.70
2010,07,23,01,07,14.70
2010,07,23,01,08,14.70
2010,07,23,01,09,14.70
2010,07,23,01,10,14.70
2010,07,23,01,11,14.60
2010,07,23,01,12,14.60
2010,07,23,01,13,14.60
2010,07,23,01,14,14.60
2010,07,23,01,15,14.60
2010,07,23,01,16,14.60
2010,07,23,01,17,14.50
2010,07,23,01,18,14.40
2010,07,23,01,19,14.40
2010,07,23,01,20,14.40
2010,07,23,01,21,14.40
2010,07,23,01,22,14.40
2010,07,23,01,23,14.30
2010,07,23,01,24,14.30
2010,07,23,01,25,14.30
2010,07,23,01,26,14.30
2010,07,23,01,27,14.20
2010,07,23,01,28,14.20
2010,07,23,01,29,14.20
2010,07,23,01,30,14.20
2010,07,23,01,31,14.20
2010,07,23,01,32,14.10
2010,07,23,01,33,14.10
2010,07,23,01,34,14.10
2010,07,23,01,35,14.10
2010,07,23,01,36,14.10
2010,07,23,01,37,14.00
2010,07,23,01,38,14.00
2010,07,23,01,39,14.00
2010,07,23,01,40,14.00
2010,07,23,01,41,14.00
2010,07,23,01,42,13.90
2010,07,23,01,43,13.90
2010,07,23,01,44,13.90
2010,07,23,01,45,13.90
2010,07,23,01,46,13.90
2010,07,23,01,47,13.90
2010,07,23,01,48,13.80
2010,07,23,01,49,13.80
2010,07,23,01,50,13.80
2010,07,23,01,51,13.80
2010,07,23,01,52,13.80
2010,07,23,01,53,13.80
2010,07,23,01,54,13.70
2010,07,23,01,55,13.70
2010,07,23,01,56,13.70
2010,07,23,01,57,13.70
2010,07,23,01,58,13.70
2010,07,23,01,59,13.70
2010,07,23,02,00,13.70
2010,07,23,02,01,13.70
2010,07,23,02,02,13.60
2010,07,23,02,03,13.60
2010,07,23,02,04,13.60
2010,07,23,02,05,13.60
2010,07,23,02,06,13.60
2010,07,23,02,07,13.60
2010,07,23,02,08,13.60
2010,07,23,02,09,13.60
2010,07,23,02,10,13.60
2010,07,23,02,11,13.50
2010,07,23,02,12,13.50
2010,07,23,02,13,13.50
2010,07,23,02,14,13.50
2010,07,23,02,15,13.50
2010,07,23,02,16,13.40
2010,07,23,02,17,13.40
2010,07,23,02,18,13.40
2010,07,23,02,19,13.40
2010,07,23,02,20,13.40
2010,07,23,02,21,13.40
2010,07,23,02,22,13.40
2010,07,23,02,23,13.40
2010,07,23,02,24,13.40
2010,07,23,02,25,13.30
2010,07,23,02,26,13.30
2010,07,23,02,27,13.30
2010,07,23,02,28,13.30
2010,07,23,02,29,13.30
2010,07,23,02,30,13.30
2010,07,23,02,31,13.30
2010,07,23,02,32,13.30
2010,07,23,02,33,13.30
2010,07,23,02,34,13.30
2010,07,23,02,35,13.30
2010,07,23,02,36,13.30
2010,07,23,02,37,13.20
2010,07,23,02,38,13.30
2010,07,23,02,39,13.30
2010,07,23,02,40,13.20
2010,07,23,02,41,13.30
2010,07,23,02,42,13.30
2010,07,23,02,43,13.20
2010,07,23,02,44,13.20
2010,07,23,02,45,13.20
2010,07,23,02,46,13.20
2010,07,23,02,47,13.20
2010,07,23,02,48,13.20
2010,07,23,02,49,13.20
2010,07,23,02,50,13.20
2010,07,23,02,51,13.20
2010,07,23,02,52,13.20
2010,07,23,02,53,13.20
2010,07,23,02,54,13.20
2010,07,23,02,55,13.10
2010,07,23,02,56,13.10
2010,07,23,02,57,13.10
2010,07,23,02,58,13.10
2010,07,23,02,59,13.20
2010,07,23,03,00,13.20
2010,07,23,03,01,13.20
2010,07,23,14,52,26.80
2010,07,23,16,15,27.60
2010,07,23,16,19,27.60
2010,07,23,16,20,27.50
2010,07,23,16,21,27.40
2010,07,23,16,22,27.40
2010,07,23,16,23,27.30
2010,07,23,16,24,27.30
2010,07,23,16,25,27.30
2010,07,23,16,26,27.30
2010,07,23,16,27,27.20
2010,07,23,16,28,27.20
2010,07,23,16,29,27.20
2010,07,23,16,30,27.20
2010,07,23,16,31,27.20
2010,07,23,16,32,27.20
2010,07,23,16,33,27.20
2010,07,23,16,34,27.20
2010,07,23,16,35,27.20
2010,07,23,16,36,27.20
2010,07,23,16,37,27.20
2010,07,23,16,38,27.20
2010,07,23,16,39,27.20
2010,07,23,16,40,27.20
2010,07,23,16,41,27.30
2010,07,23,16,42,27.30
2010,07,23,16,43,27.30
2010,07,23,16,44,27.20
2010,07,23,16,45,27.20
2010,07,23,16,46,27.20
2010,07,23,16,47,27.30
2010,07,23,16,48,27.30
2010,07,23,16,49,27.40
2010,07,23,16,50,27.40
2010,07,23,16,51,27.30
2010,07,23,16,52,27.30
2010,07,23,16,53,27.30
2010,07,23,16,54,27.40
2010,07,23,16,55,27.40
2010,07,23,16,56,27.40
2010,07,23,16,57,27.40
2010,07,23,16,58,27.50
2010,07,23,16,59,27.50
2010,07,23,17,00,27.40
2010,07,23,17,01,27.40
2010,07,23,17,02,27.40
2010,07,23,17,03,27.30
2010,07,23,17,04,27.30
2010,07,23,17,05,27.20
2010,07,23,17,06,27.20
2010,07,23,17,07,27.20
2010,07,23,17,08,27.20
2010,07,23,17,09,27.20
2010,07,23,17,10,27.20
2010,07,23,17,11,27.20
2010,07,23,17,12,27.20
2010,07,23,17,13,27.20
2010,07,23,17,14,27.20
2010,07,23,17,15,27.20
2010,07,23,17,16,27.20
2010,07,23,17,17,27.20
2010,07,23,17,18,27.20
2010,07,23,17,19,27.20
2010,07,23,17,20,27.10
2010,07,23,17,21,27.10
2010,07,23,17,22,27.00
2010,07,23,17,23,27.00
2010,07,23,17,24,26.90
2010,07,23,17,25,26.90
2010,07,23,17,26,26.90
2010,07,23,17,27,26.80
2010,07,23,17,28,26.80
2010,07,23,17,29,26.80
2010,07,23,17,30,26.80
2010,07,23,17,31,26.80
2010,07,23,17,32,26.80
2010,07,23,17,33,26.80
2010,07,23,17,34,26.80
2010,07,23,17,35,26.90
2010,07,23,17,36,26.90
2010,07,23,17,37,26.90
2010,07,23,17,38,26.90
2010,07,23,17,39,26.90
2010,07,23,17,40,26.90
2010,07,23,17,41,27.00
2010,07,23,17,42,27.00
2010,07,23,17,43,27.00
2010,07,23,17,44,27.00
2010,07,23,17,45,26.90
2010,07,23,17,46,26.80
2010,07,23,17,47,26.80
2010,07,23,17,48,26.80
2010,07,23,17,49,26.80
2010,07,23,17,50,26.80
2010,07,23,17,51,26.80
2010,07,23,17,52,26.80
2010,07,23,17,53,26.80
2010,07,23,17,54,26.80
2010,07,23,17,55,26.80
2010,07,23,17,56,26.80
2010,07,23,17,57,26.80
2010,07,23,17,58,26.80
2010,07,23,17,59,26.80
2010,07,23,18,00,26.80
2010,07,23,18,01,26.80
2010,07,23,18,02,26.80
2010,07,23,18,03,26.80
2010,07,23,18,04,26.80
2010,07,23,18,05,26.80
2010,07,23,18,06,26.80
2010,07,23,18,07,26.80
2010,07,23,18,08,26.80
2010,07,23,18,09,26.80
2010,07,23,18,10,26.80
2010,07,23,18,11,26.80
2010,07,23,18,12,26.80
2010,07,23,18,13,26.80
2010,07,23,18,14,26.80
2010,07,23,18,15,26.80
2010,07,23,18,16,26.70
2010,07,23,18,17,26.80
2010,07,23,18,18,26.80
2010,07,23,18,19,26.70
2010,07,23,18,20,26.70
2010,07,23,18,21,26.70
2010,07,23,18,22,26.70
2010,07,23,18,23,26.70
2010,07,23,18,24,26.70
2010,07,23,18,25,26.70
2010,07,23,18,26,26.60
2010,07,23,18,27,26.70
2010,07,23,18,28,26.70
2010,07,23,18,29,26.70
2010,07,23,18,30,26.70
2010,07,23,18,31,26.70
2010,07,23,18,32,26.70
2010,07,23,18,33,26.70
2010,07,23,18,34,26.70
2010,07,23,18,35,26.70
2010,07,23,18,36,26.70
2010,07,23,18,37,26.70
2010,07,23,18,38,26.70
2010,07,23,18,39,26.70
2010,07,23,18,40,26.70
2010,07,23,18,41,26.70
2010,07,23,18,42,26.70
2010,07,23,18,43,26.80
2010,07,23,18,44,26.80
2010,07,23,18,45,26.80
2010,07,23,18,46,26.90
2010,07,23,18,47,26.90
2010,07,23,18,48,26.90
2010,07,23,18,49,26.90
2010,07,23,18,50,26.90
2010,07,23,18,51,27.00
2010,07,23,18,52,27.00
2010,07,23,18,53,27.00
2010,07,23,18,54,27.00
2010,07,23,18,55,27.10
2010,07,23,18,56,27.10
2010,07,23,18,57,27.10
2010,07,23,18,58,27.10
2010,07,23,18,59,27.10
2010,07,23,19,00,27.10
2010,07,23,19,01,27.10
2010,07,23,19,02,27.10
2010,07,23,19,03,27.00
2010,07,23,19,04,27.00
2010,07,23,19,05,27.00
2010,07,23,19,06,27.00
2010,07,23,19,07,26.90
2010,07,23,19,08,26.90
2010,07,23,19,09,26.90
2010,07,23,19,10,26.90
2010,07,23,19,11,26.80
2010,07,23,19,12,26.80
2010,07,23,19,13,26.80
2010,07,23,19,14,26.80
2010,07,23,19,15,26.80
2010,07,23,19,16,26.80
2010,07,23,19,17,26.90
2010,07,23,19,18,26.90
2010,07,23,19,19,26.90
2010,07,23,19,20,26.90
2010,07,23,19,21,26.90
2010,07,23,19,22,26.90
2010,07,23,19,23,26.90
2010,07,23,19,24,26.90
2010,07,23,19,25,26.80
2010,07,23,19,26,26.80
2010,07,23,19,27,26.80
2010,07,23,19,28,26.70
2010,07,23,19,29,26.70
2010,07,23,19,30,26.60
2010,07,23,19,31,26.40
2010,07,23,19,32,26.30
2010,07,23,19,33,26.20
2010,07,23,19,34,26.10
2010,07,23,19,35,26.10
2010,07,23,19,36,26.00
2010,07,23,19,37,25.90
2010,07,23,19,38,25.90
2010,07,23,19,39,25.90
2010,07,23,19,40,25.90
2010,07,23,19,41,25.80
2010,07,23,19,42,25.80
2010,07,23,19,43,25.70
2010,07,23,19,44,25.70
2010,07,23,19,45,25.60
2010,07,23,19,46,25.60
2010,07,23,19,47,25.50
2010,07,23,19,48,25.40
2010,07,23,19,49,25.40
2010,07,23,19,50,25.40
2010,07,23,19,51,25.30
2010,07,23,19,52,25.30
2010,07,23,19,53,25.30
2010,07,23,19,54,25.30
2010,07,23,19,55,25.30
2010,07,23,19,56,25.30
2010,07,23,19,57,25.30
2010,07,23,19,58,25.30
2010,07,23,19,59,25.20
2010,07,23,20,00,25.20
2010,07,23,20,01,25.10
2010,07,23,20,02,25.10
2010,07,23,20,03,25.10
2010,07,23,20,04,25.00
2010,07,23,20,05,24.90
2010,07,23,20,06,24.90
2010,07,23,20,07,24.90
2010,07,23,20,08,24.90
2010,07,23,20,09,24.80
2010,07,23,20,10,24.80
2010,07,23,20,11,24.80
2010,07,23,20,12,24.80
2010,07,23,20,13,24.80
2010,07,23,20,14,24.70
2010,07,23,20,15,24.70
2010,07,23,20,16,24.60
2010,07,23,20,17,24.50
2010,07,23,20,18,24.40
2010,07,23,20,19,24.40
2010,07,23,20,20,24.30
2010,07,23,20,21,24.30
2010,07,23,20,22,24.30
2010,07,23,20,23,24.20
2010,07,23,20,24,24.20
2010,07,23,20,25,24.10
2010,07,23,20,26,24.10
2010,07,23,20,27,24.10
2010,07,23,20,28,24.10
2010,07,23,20,29,24.00
2010,07,23,20,30,24.00
2010,07,23,20,31,23.90
2010,07,23,20,32,23.90
2010,07,23,20,33,23.90
2010,07,23,20,34,23.80
2010,07,23,20,35,23.80
2010,07,23,20,36,23.80
2010,07,23,20,37,23.70
2010,07,23,20,38,23.70
2010,07,23,20,39,23.70
2010,07,23,20,40,23.70
2010,07,23,20,41,23.60
2010,07,23,20,42,23.60
2010,07,23,20,43,23.60
2010,07,23,20,44,23.50
2010,07,23,20,45,23.40
2010,07,23,20,46,23.40
2010,07,23,20,47,23.40
2010,07,23,20,48,23.40
2010,07,23,20,49,23.40
2010,07,23,20,50,23.40
2010,07,23,20,51,23.30
2010,07,23,20,52,23.30
2010,07,23,20,53,23.30
2010,07,23,20,54,23.30
2010,07,23,20,55,23.20
2010,07,23,20,56,23.20
2010,07,23,20,57,23.10
2010,07,23,20,58,23.00
2010,07,23,20,59,23.00
2010,07,23,21,00,22.90
2010,07,23,21,01,22.90
2010,07,23,21,02,22.80
2010,07,23,21,03,22.80
2010,07,23,21,04,22.70
2010,07,23,21,05,22.70
2010,07,23,21,06,22.70
2010,07,23,21,07,22.60
2010,07,23,21,08,22.60
2010,07,23,21,09,22.50
2010,07,23,21,10,22.40
2010,07,23,21,11,22.40
2010,07,23,21,12,22.30
2010,07,23,21,13,22.30
2010,07,23,21,14,22.30
2010,07,23,21,15,22.30
2010,07,23,21,16,22.20
2010,07,23,21,17,22.20
2010,07,23,21,18,22.20
2010,07,23,21,19,22.10
2010,07,23,21,20,22.10
2010,07,23,21,21,22.00
2010,07,23,21,22,21.90
2010,07,23,21,23,21.90
2010,07,23,21,24,21.90
2010,07,23,21,25,21.80
2010,07,23,21,26,21.80
2010,07,23,21,27,21.80
2010,07,23,21,28,21.80
2010,07,23,21,29,21.80
2010,07,23,21,30,21.70
2010,07,23,21,31,21.70
2010,07,23,21,32,21.70
2010,07,23,21,33,21.60
2010,07,23,21,34,21.60
2010,07,23,21,35,21.60
2010,07,23,21,36,21.50
2010,07,23,21,37,21.40
2010,07,23,21,38,21.40
2010,07,23,21,39,21.40
2010,07,23,21,40,21.30
2010,07,23,21,41,21.30
2010,07,23,21,42,21.30
2010,07,23,21,43,21.30
2010,07,23,21,44,21.20
2010,07,23,21,45,21.20
2010,07,23,21,46,21.20
2010,07,23,21,47,21.20
2010,07,23,21,48,21.20
2010,07,23,21,49,21.10
2010,07,23,21,50,21.10
2010,07,23,21,51,21.10
2010,07,23,21,52,21.10
2010,07,23,21,53,21.10
2010,07,23,21,54,21.10
2010,07,23,21,55,21.00
2010,07,23,21,56,21.00
2010,07,23,21,57,21.00
2010,07,23,21,58,20.90
2010,07,23,21,59,20.90
2010,07,23,22,00,20.90
2010,07,23,22,01,20.90
2010,07,23,22,02,20.90
2010,07,23,22,03,20.90
2010,07,23,22,04,20.90
2010,07,23,22,05,20.80
2010,07,23,22,06,20.80
2010,07,23,22,07,20.80
2010,07,23,22,08,20.80
2010,07,23,22,09,20.70
2010,07,23,22,10,20.70
2010,07,23,22,11,20.70
2010,07,23,22,12,20.70
2010,07,23,22,13,20.60
2010,07,23,22,14,20.60
2010,07,23,22,15,20.60
2010,07,23,22,16,20.50
2010,07,23,22,17,20.50
2010,07,23,22,18,20.40
2010,07,23,22,19,20.40
2010,07,23,22,20,20.40
2010,07,23,22,21,20.30
2010,07,23,22,22,20.30
2010,07,23,22,23,20.30
2010,07,23,22,24,20.30
2010,07,23,22,25,20.30
2010,07,23,22,26,20.30
2010,07,23,22,27,20.20
2010,07,23,22,28,20.20
2010,07,23,22,29,20.20
2010,07,23,22,30,20.20
2010,07,23,22,31,20.20
2010,07,23,22,32,20.10
2010,07,23,22,33,20.10
2010,07,23,22,34,20.10
2010,07,23,22,35,20.00
2010,07,23,22,36,20.00
2010,07,23,22,37,19.90
2010,07,23,22,38,19.90
2010,07,23,22,39,19.90
2010,07,23,22,40,19.80
2010,07,23,22,41,19.80
2010,07,23,22,42,19.80
2010,07,23,22,43,19.80
2010,07,23,22,44,19.70
2010,07,23,22,45,19.70
2010,07,23,22,46,19.70
2010,07,23,22,47,19.70
2010,07,23,22,48,19.60
2010,07,23,22,49,19.60
2010,07,23,22,50,19.60
2010,07,23,22,51,19.60
2010,07,23,22,52,19.60
2010,07,23,22,53,19.50
2010,07,23,22,54,19.50
2010,07,23,22,55,19.50
2010,07,23,22,56,19.50
2010,07,23,22,57,19.50
2010,07,23,22,58,19.50
2010,07,23,22,59,19.50
2010,07,23,23,00,19.50
2010,07,23,23,01,19.40
2010,07,23,23,02,19.40
2010,07,23,23,03,19.40
2010,07,23,23,04,19.40
2010,07,23,23,05,19.40
2010,07,23,23,06,19.40
2010,07,23,23,07,19.40
2010,07,23,23,08,19.40
2010,07,23,23,09,19.40
2010,07,23,23,10,19.30
2010,07,23,23,11,19.30
2010,07,23,23,12,19.30
2010,07,23,23,13,19.30
2010,07,23,23,14,19.30
2010,07,23,23,15,19.30
2010,07,23,23,16,19.20
2010,07,23,23,17,19.20
2010,07,23,23,18,19.20
2010,07,23,23,19,19.20
2010,07,23,23,20,19.20
2010,07,23,23,21,19.10
2010,07,23,23,22,19.10
2010,07,23,23,23,19.10
2010,07,23,23,24,19.10
2010,07,23,23,25,19.10
2010,07,23,23,26,19.10
2010,07,23,23,27,19.10
2010,07,23,23,28,19.10
2010,07,23,23,29,19.10
2010,07,23,23,30,19.10
2010,07,23,23,31,19.10
2010,07,23,23,32,19.10
2010,07,23,23,33,19.00
2010,07,23,23,34,19.00
2010,07,23,23,35,19.00
2010,07,23,23,36,19.00
2010,07,23,23,37,19.00
2010,07,23,23,38,19.00
2010,07,23,23,39,19.00
2010,07,23,23,40,18.90
2010,07,23,23,41,18.90
2010,07,23,23,42,18.90
2010,07,23,23,43,18.90
2010,07,23,23,44,18.90
2010,07,23,23,45,18.90
2010,07,23,23,46,18.90
2010,07,23,23,47,18.90
2010,07,23,23,48,18.90
2010,07,23,23,49,18.80
2010,07,23,23,50,18.80
2010,07,23,23,51,18.80
2010,07,23,23,52,18.80
2010,07,23,23,53,18.80
2010,07,23,23,54,18.70
2010,07,23,23,55,18.70
2010,07,23,23,56,18.70
2010,07,23,23,57,18.70
2010,07,23,23,58,18.70
2010,07,23,23,59,18.60
